Regional Weather Roundup
Issued by NWS Goodland, KS

Home | Current Version | Previous Version | Text Only | Print | Product List | Glossary Off
Versions: 1 2 3 4 5 6 7 8 9 10 11 12 13 14 15 16 17 18 19 20 21 22 23 24 25 26 27 28 29 30 31 32 33 34 35 36 37 38 39 40 41 42 43 44 45 46 47 48 49 50

000
ASUS43 KGLD 012359
RWRGLD

GOODLAND FORECAST AREA HOURLY WEATHER ROUNDUP
NATIONAL WEATHER SERVICE GOODLAND KS
600 PM MDT WED JUL 01 2015

...OFFICIAL OBSERVATIONS...

CITY           SKY/WX    TMP DP  RH WIND       PRES   REMARKS
GOODLAND KS    SUNNY     92  49  22 NE8       29.96F
HILL CITY KS   SUNNY     97  52  21 NE15      29.88S
IMPERIAL NEB   SUNNY     93  54  26 NE12      29.94S
MCCOOK NEB     SUNNY     92  64  39 E7        29.89S
AKRON CO       CLOUDY    81  54  39 N9        30.07R
BURLINGTON CO  MOSUNNY   92  45  19 E9        30.01F
LIMON CO       CLOUDY    76  56  49 E3        30.12S
$$

...UNOFFICIAL OBSERVATIONS...

CITY           SKY/WX    TMP DP  RH WIND       PRES   REMARKS
COLBY KS       MOSUNNY   95  57  28 NE12      29.94F
GOVE KS          N/A     96  32  10 MISG        N/A
NORTON KS      SUNNY     91  55  29 NE8G16    29.89R
SHARON SPRINGS   N/A     94  50  22 NE10G21     N/A
KIT CARSON CO    N/A     91  52  26 MISG        N/A
$$


USA.gov is the U.S. government's official web portal to all federal, state and local government web resources and services.